Regional Weather Roundup
Issued by NWS San Angelo, TX

Home | Current Version | Previous Version | Text Only | Print | Product List | Glossary On
Versions: 1 2 3 4 5 6 7 8 9 10 11 12 13 14 15 16 17 18 19 20 21 22 23 24 25 26 27 28 29 30 31 32 33 34 35 36 37 38 39 40 41 42 43 44 45 46 47 48 49 50
000
ASUS44 KSJT 010110
RWRSJT
WEST CENTRAL TEXAS REGIONAL WEATHER ROUNDUP
NATIONAL WEATHER SERVICE SAN ANGELO TX
800 PM CDT FRI JUL 31 2015

NOTE: "FAIR" INDICATES FEW OR NO CLOUDS BELOW 12,000 FEET WITH NO
SIGNIFICANT WEATHER AND/OR OBSTRUCTIONS TO VISIBILITY.

TXZ049-054-064>066-071>073-076>078-098-099-113-114-127-128-139-140-
154-155-168>170-010200
...LOCATIONS ACROSS WEST CENTRAL TEXAS...

CITY           SKY/WX    TMP DP  RH WIND       PRES   REMARKS
SAN ANGELO     CLEAR     97  59  28 E9        29.99R
ABILENE        MOCLDY    86  70  58 NE22G35   30.06R
DYESS AFB      PTCLDY    86  72  62 E22G28    30.04R
JUNCTION       PTCLDY    90  65  43 S8        30.00R
SWEETWATER     CLEAR     91  62  37 NE22G28   30.09R
BROWNWOOD      PTCLDY    86  68  54 NE16G28   30.03R
COLEMAN        CLEAR     94  65  37 E8        30.03R
SONORA         PTCLDY    90  64  43 S10       30.06R
OZONA          FAIR      95  54  24 SE10      30.04S
BRADY          CLEAR     97  63  32 E10       30.01R
$$

TEXAS PANHANDLE/OKLAHOMA PANHANDLE

CITY           SKY/WX    TMP DP  RH WIND       PRES   REMARKS
AMARILLO       PTCLDY    81  64  56 E10       30.18R
BORGER         MOCLDY    81  65  58 VRB5      30.16R
CANADIAN       CLOUDY    79  70  74 E10       30.12S
DALHART        MOCLDY    78  66  66 SE8       30.20S
DUMAS          PTCLDY    76  65  69 SE7       30.19R
GUYMON         NOT AVBL
HEREFORD       PTCLDY    82  66  58 MISG      30.18R
PAMPA          CLOUDY    80  65  59 E9        30.18R
PERRYTON       NOT AVBL
$$

SOUTHERN PANHANDLE/SOUTH PLAINS/ROLLING PLAINS

CITY           SKY/WX    TMP DP  RH WIND       PRES   REMARKS
LUBBOCK        LGT RAIN  75  70  84 NE10      30.14R
SNYDER         CLEAR     89  66  45 NE15G22   30.08R
CHILDRESS      PTCLDY    84  66  54 E10       30.09R
SEMINOLE       PTCLDY    93  48  21 E7        30.10R
$$

PERMIAN BASIN

CITY           SKY/WX    TMP DP  RH WIND       PRES   REMARKS
MIDLAND        CLEAR     95  53  24 E12       30.04S
ODESSA         PTCLDY    96  51  21 E10       30.05S
WINK           PTCLDY    96  52  22 SE8       30.01S
$$

FAR WEST/SOUTHWEST MOUNTAINS/TRANS PECOS

CITY           SKY/WX    TMP DP  RH WIND       PRES   REMARKS
ALPINE         CLEAR     86  52  31 SE10      30.20S
DRYDEN           N/A     97  59  28 SE9       29.97F
EL PASO        MOSUNNY   92  51  24 SE7       30.06F
FORT STOCKTON  PTCLDY    93  53  25 E12       30.04S
GUADALUPE PASS SUNNY     82  48  30 E16       30.24S
MARFA          PTCLDY    84  50  30 SE12      30.19S
PECOS          CLEAR     96  51  21 E9        30.00S
$$

DALLAS/FORT WORTH METROPLEX

CITY           SKY/WX    TMP DP  RH WIND       PRES   REMARKS
DFW AIRPORT    MOCLDY    92  64  39 NE8       30.01R
FTW MEACHAM    CLOUDY    93  66  40 N9        30.02R
DAL-EXECUTIVE  PTCLDY    92  64  39 E6        30.01R
GRAND PRAIRIE  NOT AVBL
ADDISON        MOCLDY    91  61  35 NE9       30.02R
MESQUITE       CLEAR     90  57  33 NE6       30.01R
LANCASTER      PTCLDY    91  62  38 NE7       30.01R
$$

NORTH CENTRAL TEXAS

CITY           SKY/WX    TMP DP  RH WIND       PRES   REMARKS
SHRMAN/DENISON MOCLDY    86  70  59 NE3       30.05S
GAINESVILLE    CLOUDY    85  69  57 N3        30.07S
BRIDGEPORT     NOT AVBL
DENTON         CLOUDY    90  67  46 NE6       30.03R
WAXAHACHIE     PTCLDY    89  67  47 NE6       30.03R
GRANBURY       DRIZZLE   80  72  77 NW20G26   30.07R
$$

WESTERN NORTH TEXAS

CITY           SKY/WX    TMP DP  RH WIND       PRES   REMARKS
WICHITA FALLS  TSTM      76  73  91 E7        30.06F
VERNON         MOCLDY    80  66  62 E13       30.08S
BRECKENRIDGE   CLOUDY    79  69  73 E12       30.07R
COMANCHE       MOCLDY    80  71  74 E13G31    30.05R THUNDER
$$

CENTRAL AND SOUTH CENTRAL TEXAS

CITY           SKY/WX    TMP DP  RH WIND       PRES   REMARKS
AUSTIN/BERGSTM PTCLDY    92  72  51 E9        29.94R
WACO           CLEAR     92  67  43 NE10      29.98R
HILLSBORO      PTCLDY    91  63  39 NE6       30.01R
TEMPLE         CLEAR     93  66  40 NE12      29.98R
KILLEEN-GRAY   PTCLDY    93  69  45 E13       29.99R
FORT HOOD      CLEAR     93  69  44 E12       29.98R
GEORGETOWN     PTCLDY    95  68  41 E12       29.96R
LAGO VISTA     FAIR      93  67  43 E7        30.00R
SAN MARCOS     PTCLDY    91  72  52 SE7       29.96R
NEW BRAUNFELS  PTCLDY    91  71  51 SE6       29.94R
RANDOLPH AFB   MOCLDY    85  72  63 SE5       29.96R
SAN ANTONIO    MOCLDY    90  70  51 SE8       29.97R
STINSON        MOCLDY    88  72  58 E3        29.94R
PLEASANTON     NOT AVBL
LA GRANGE      PTCLDY    94  75  54 E3        29.91R
GIDDINGS       PTCLDY    90  69  49 E6        29.98R
$$

EAST TEXAS

CITY           SKY/WX    TMP DP  RH WIND       PRES   REMARKS
PARIS          PTCLDY    88  57  35 E6        30.03S
CLARKSVILLE    NOT AVBL
TYLER          CLEAR     90  59  35 NE6       30.00R
LONGVIEW       CLEAR     88  59  37 NE6       29.99R
PALESTINE      CLEAR     91  58  32 NE6       29.99R
NACOGDOCHES    CLEAR     88  61  40 NE5       29.97R
$$

TEXAS HILL COUNTRY AND EDWARDS PLATEAU

CITY           SKY/WX    TMP DP  RH WIND       PRES   REMARKS
LLANO          PTCLDY    95  66  38 SE13G20   30.01R
HORSESHOE BAY  FAIR      94  66  39 E3G17     29.98R
KERRVILLE      NOT AVBL
FREDERICKSBRG  NOT AVBL
ROCKSPRINGS    MOCLDY    79  66  65 SE5       30.06S
HONDO          MOCLDY    89  68  49 E8        29.98R
UVALDE         MOCLDY    85  71  63 S5        29.98S
DEL RIO        PTCLDY    90  65  43 E12       29.94R
$$

SOUTHEAST TEXAS

CITY           SKY/WX    TMP DP  RH WIND       PRES   REMARKS
COLLEGE STN    CLEAR     93  60  33 NE12      29.93R
CALDWELL       CLEAR     91  57  31 NE7       29.97R
CROCKETT       CLEAR     90  64  43 NE6       29.99R
BRENHAM        CLEAR     92  64  39 E6        29.94R
HUNTSVILLE     CLEAR     91  60  35 E5        29.95R
CONROE         CLEAR     89  60  37 NE3       29.94R
HOUSTON BUSH   PTCLDY    89  63  41 E9        29.92R
HOUSTON HOBBY  PTCLDY    93  60  33 NE13      29.91R
PERLAND        CLEAR     93  61  34 E7        29.93R
WHARTON        MOCLDY    85  73  68 SE7       29.93R
$$

THE UPPER TEXAS COAST

CITY           SKY/WX    TMP DP  RH WIND       PRES   REMARKS
ORANGE         CLEAR     88  58  37 CALM      29.93R
PORT ARTHUR    PTCLDY    91  65  41 N9        29.91R
GALVESTON      CLEAR     88  78  72 S8        29.93R
ANGLETON       PTCLDY    86  77  74 S7        29.92R
BAY CITY       MOCLDY    85  76  74 S5        29.92R
$$

TEXAS COASTAL BEND, RIO GRANDE PLAINS DEEP SOUTH TEXAS

CITY           SKY/WX    TMP DP  RH WIND       PRES   REMARKS
VICTORIA       CLOUDY    80  75  84 S10       29.93R
BEEVILLE       TSTM      74  74 100 SW7       29.95F
ROCKPORT       CLOUDY    77  74  90 SW6       29.93R
PORT ARANSAS   MOCLDY    80  72  76 CALM      29.94R
PORT LAVACA    CLOUDY    77  73  88 SW8       29.94R
CORPUS CHRISTI TSTM      78  74  87 CALM      29.94F
KINGSVILLE NAS MOCLDY    82  74  76 NE12G20   29.96R
COTULLA        LGT RAIN  79  75  87 CALM      29.99R FOG
LAREDO         LGT RAIN  84  72  67 NE15G22   29.97F
BROWNSVILLE    MOCLDY    84  73  69 SE7       29.93F
PORT ISABEL    CLOUDY    84  76  76 SE7       29.92F
HEBBRONVILLE   LGT RAIN N/A N/A N/A NW6       29.98
MCALLEN        MOCLDY    92  67  43 E9        29.93S
WESLACO        CLOUDY    87  67  50 SE6       29.93S
FALFURRIAS     MOCLDY    86  71  60 N5        29.93R
EDINBURG       CLOUDY    88  68  50 SE6       29.93F
$$


USA.gov is the U.S. government's official web portal to all federal, state and local government web resources and services.